Regional Weather Roundup
Issued by NWS

Home | Current Version | Previous Version | Text Only | Print | Product List | Glossary On
Versions: 1 2 3 4 5 6 7 8 9 10 11 12 13 14 15 16 17 18 19 20 21 22 23 24 25 26 27 28 29 30 31 32 33 34 35 36 37 38 39 40 41 42 43 44 45 46 47 48 49 50
000
ASUS45 KABQ 010810
RWRNM
WEATHER ROUNDUP FOR NEW MEXICO
NATIONAL WEATHER SERVICE ALBUQUERQUE NM
200 AM MDT SAT NOV 01 2014

NOTE: "FAIR" MEANS FEW OR NO CLOUDS BELOW 12,000 FEET AGL WITH NO
       SIGNIFICANT WEATHER OR OBSTRUCTIONS TO VISION.

      THIS PRODUCT IS RELEASED AS TWO VERSIONS.  ONE VERSION NEAR
      THE TOP OF THE HOUR CONTAINING PRELIMINARY DATA FROM ALBUQUERQUE
      AND OTHER STATIONS.  A FINAL VERSION WITH ADDITIONAL DATA IS
      ISSUED ABOUT 10 MINUTES AFTER THE HOUR.

NMZ501-503-504-510>518-010900-
NORTHWEST PLATEAU/NORTHCENTRAL MOUNTAINS

CITY           SKY/WX    TMP DP  RH WIND       PRES   REMARKS
FARMINGTON     CLEAR     55  37  50 E10       30.12F
LOS ALAMOS     MOCLDY    45  31  58 S3        30.29S
SANTA FE       MOCLDY    49  31  49 SE7       30.25F
TAOS           PTCLDY    39  25  56 N5        30.29S
ANGEL FIRE     FAIR      34  27  74 SW6       30.32R WCI  29

$$
NMZ402-403-502-505>509-010900-
WESTCENTRAL MOUNTAINS/SOUTHWEST MOUNTAINS

CITY           SKY/WX    TMP DP  RH WIND       PRES   REMARKS
GALLUP         PTCLDY    54  40  59 SE21G28   30.13F
GRANTS         CLEAR     46  37  71 S7        30.22S
SILVER CITY    PTCLDY    55  41  58 E6        30.21F

$$
NMZ407-409-411-412-010900-
SOUTHERN DESERTS

CITY           SKY/WX    TMP DP  RH WIND       PRES   REMARKS
LORDSBURG      FAIR      63  43  48 E23G30    30.09F
DEMING         CLEAR     56  36  47 NE14      30.14F
LAS CRUCES     CLEAR     58  35  41 SE13      30.16F
HOLLOMAN AFB   PTCLDY    52  38  58 N9        30.17F
T OR C         CLEAR     57  39  51 CALM      30.18F

$$
NMZ519>523-010900-
CENTRAL VALLEYS/CENTRAL HIGHLANDS

CITY           SKY/WX    TMP DP  RH WIND       PRES   REMARKS
ALBUQUERQUE    CLOUDY    55  44  66 N5        30.21F
MORIARTY ARPT  CLOUDY    47  31  55 SE6       30.28S
CLINES CORNERS PTCLDY    41  30  65 S5        30.27F
BELEN          NOT AVBL
SOCORRO        FAIR      56  38  51 S7        30.18F

$$
NMZ524>526-539-540-010900-
SOUTHCENTRAL MOUNTAINS

CITY           SKY/WX    TMP DP  RH WIND       PRES   REMARKS
RUIDOSO        MOCLDY    43  32  65 SE8       30.32F

$$
NMZ527>531-010900-
NORTHEAST HIGHLANDS/NORTHEAST PLAINS

CITY           SKY/WX    TMP DP  RH WIND       PRES   REMARKS
LAS VEGAS      MOCLDY    40  30  67 S12       30.28F WCI  33
RATON          PTCLDY    38  28  67 CALM      30.23S
CLAYTON        CLEAR     44  30  57 S22       30.18F

$$
NMZ532>537-010900-
EASTCENTRAL PLAINS

CITY           SKY/WX    TMP DP  RH WIND       PRES   REMARKS
TUCUMCARI      CLEAR     48  32  53 CALM      30.24S
CANNON AFB     CLEAR     39  31  72 SE5       30.29F
CLOVIS AIRPORT CLEAR     39  28  65 S8        30.31F WCI  34

$$
NMZ028-029-538-010900-
SOUTHEAST PLAINS

CITY           SKY/WX    TMP DP  RH WIND       PRES   REMARKS
ROSWELL        MOCLDY    49  35  58 S10       30.28S
CARLSBAD       PTCLDY    51  34  52 S9        30.26F
HOBBS          CLEAR     43  32  65 SE7       30.31S


$$



USA.gov is the U.S. government's official web portal to all federal, state and local government web resources and services.